DW5978 Whyalla SA AU current weather conditions

sailwx.info

Wind from 291

Air temperature 18.3° C
Dewpoint 13.2° C

Last reported at 2018-Apr-25 00:04 UTC.
Time now 2018-Apr-25 01:04 UTC

Location: S 33°01' E 137°32'.
View on Google Maps.

See reports from other nearby stations

  
Tides and Currents Weather Stations Pressure Air Temp Water Temp Dewpoint Dewpoint Depression Visibility Wind Speed Wind Dir Waves Ship Positions
date/time (UTC)wind fromknots sea level pressurealtimeterstation pressurevisibilityair tempwater tempwave heightnotes
2018-Apr-25 00:04 291 18.3
2018-Apr-24 23:49 291 17.8
2018-Apr-24 23:34 291 17.8
2018-Apr-24 23:19 291 17.8
2018-Apr-24 23:04 291 16.7
2018-Apr-24 22:49 291 15.6
2018-Apr-24 22:34 291 14.4
2018-Apr-24 22:19 291 13.9
2018-Apr-24 22:04 291 13.3
2018-Apr-24 21:49 291 13.3
2018-Apr-24 21:34 291 13.3
2018-Apr-24 21:19 291 12.8
2018-Apr-24 21:04 291 12.8
2018-Apr-24 20:49 291 12.8
2018-Apr-24 20:28 291 12.8
2018-Apr-24 19:58 291 12.8
2018-Apr-24 19:26 291 13.3
2018-Apr-24 18:43 291 13.3
2018-Apr-24 18:33 291 12.8
2018-Apr-24 17:48 291 13.3
2018-Apr-24 17:33 291 13.9
2018-Apr-24 17:18 291 13.9
2018-Apr-24 17:04 291 13.9
2018-Apr-24 16:48 291 13.9
2018-Apr-24 16:33 291 13.9
2018-Apr-24 16:18 291 13.9
2018-Apr-24 16:03 291 13.9
2018-Apr-24 15:48 291 13.9
2018-Apr-24 15:33 291 13.9
2018-Apr-24 15:18 291 13.9
2018-Apr-24 15:03 291 13.9
2018-Apr-24 14:48 291 13.9
2018-Apr-24 14:33 291 13.9
2018-Apr-24 14:18 291 14.4
2018-Apr-24 14:03 291 14.4
2018-Apr-24 13:48 291 14.4
2018-Apr-24 13:33 291 13.9
2018-Apr-24 13:18 291 14.4
2018-Apr-24 13:03 291 14.4
2018-Apr-24 12:48 291 14.4
2018-Apr-24 12:34 291 15.0
2018-Apr-24 12:18 291 14.4
2018-Apr-24 12:03 291 14.4
2018-Apr-24 09:08 291 16.1
2018-Apr-24 08:53 291 16.7
2018-Apr-24 08:38 291 17.2
2018-Apr-24 08:23 291 17.8
2018-Apr-24 08:08 291 17.8
2018-Apr-24 07:53 299 18.3
2018-Apr-24 07:38 299 18.9
2018-Apr-24 07:23 299 19.4
2018-Apr-24 07:08 299 19.4
2018-Apr-24 06:53 299 20.0
2018-Apr-24 06:38 299 20.6
2018-Apr-24 06:23 302 0 gusting 4 20.6
2018-Apr-24 06:08 303 0 gusting 4 21.1
2018-Apr-24 05:53 305 0 gusting 5 21.7
2018-Apr-24 05:38 240 21.7
2018-Apr-24 05:23 231 0 gusting 3 21.7
2018-Apr-24 05:08 230 21.7
2018-Apr-24 04:53 234 0 gusting 5 22.2
2018-Apr-24 04:38 234 0 gusting 4 21.7
2018-Apr-24 04:23 236 0 gusting 2 21.7
2018-Apr-24 04:08 237 21.7
2018-Apr-24 03:53 236 20.6
2018-Apr-24 03:38 236 20.6
2018-Apr-24 03:23 236 20.0
2018-Apr-24 03:08 236 0 gusting 4 20.6
2018-Apr-24 02:53 236 0 gusting 4 20.0
2018-Apr-24 02:38 236 1 gusting 5 20.0
2018-Apr-24 02:23 260 20.0
2018-Apr-24 02:08 264 0 gusting 6 21.1
2018-Apr-24 01:53 321 20.0
2018-Apr-24 01:38 321 19.4
2018-Apr-24 01:23 321 19.4
2018-Apr-24 01:08 321 19.4
2018-Apr-24 00:53 321 18.9
2018-Apr-24 00:38 321 18.9
2018-Apr-24 00:23 321 18.9
2018-Apr-24 00:08 321 18.9
2018-Apr-23 23:53 321 19.4
2018-Apr-23 23:38 332 20.6
2018-Apr-23 23:23 332 20.6
2018-Apr-23 23:07 332 20.0
2018-Apr-23 22:52 332 20.0
2018-Apr-23 22:37 332 20.0
2018-Apr-23 22:22 332 20.0
2018-Apr-23 22:07 332 19.4
2018-Apr-23 21:52 332 19.4
2018-Apr-23 21:37 332 20.6
2018-Apr-23 21:22 332 21.7
2018-Apr-23 21:09 331 21.7
2018-Apr-23 18:05 349 23.9
2018-Apr-23 17:46 345 1 gusting 5 23.9
2018-Apr-23 17:38 350 1 gusting 5 23.3
2018-Apr-23 14:43 298 18.9
2018-Apr-23 14:33 298 18.9
2018-Apr-23 14:15 298 18.9
2018-Apr-23 13:56 298 18.9
2018-Apr-23 13:41 298 18.9
2018-Apr-23 13:26 298 18.9
2018-Apr-23 13:12 298 18.9
2018-Apr-23 12:56 298 18.9
2018-Apr-23 12:41 298 19.4
2018-Apr-23 12:26 298 20.0
2018-Apr-23 12:11 298 20.0
2018-Apr-23 11:56 298 20.0
2018-Apr-23 11:41 298 20.0
2018-Apr-23 11:26 298 20.0
2018-Apr-23 11:11 298 20.6
2018-Apr-23 10:56 298 21.1
2018-Apr-23 10:41 298 21.1
2018-Apr-23 10:26 298 21.7
2018-Apr-23 10:11 298 21.7
2018-Apr-23 09:56 297 21.7
2018-Apr-23 09:41 298 21.7
2018-Apr-23 09:26 298 22.2
2018-Apr-23 09:11 203 22.2
2018-Apr-23 08:56 203 22.8
2018-Apr-23 08:41 203 22.8
2018-Apr-23 08:27 203 23.3
2018-Apr-23 08:11 197 23.9